User: anonymous   Login
Location: Chuathbaluk
(61.5726°N, 159.2454°W)
Time: 16:25:27
(UTC+00:00)
Language:

DELFI C3 - Orbit

View from above orbital plane
View from above orbital plane
View from above satellite
View from above satellite

Ground track
Ground track

The orbit data is extracted from the following two-line orbital elements,

1 32789U 08021G   21129.09076226  .00001239  00000-0  82464-4 0  9990
2 32789  97.3792 165.9705 0009974 278.7054  81.3045 15.08850974710896
Epoch (UTC): 09 May 2021 02:10:41
Eccentricity: 0.0009974
inclination: 97.3792°
perigee height: 533 km
apogee height: 546 km
right ascension of ascending node: 165.9705°
argument of perigee: 278.7054°
revolutions per day: 15.08850974
mean anomaly at epoch: 81.3045°
orbit number at epoch: 71089

The dashed part of the orbit path shows where the satellite is in the earth's shadow,  

DLR